Weather Roundup
Issued by NWS Springfield, MO

Home | Current Version | Previous Version | Text Only | Print | Product List | Glossary On
Versions: 1 2 3 4 5 6 7 8 9 10 11 12 13 14 15 16 17 18 19 20 21 22 23 24 25 26 27 28 29 30 31 32 33 34 35 36 37 38 39 40 41 42 43 44 45 46 47 48 49 50
000
NZUS99 KSGF 251907
HRRSGF

HOURLY WEATHER
NATIONAL WEATHER SERVICE SPRINGFIELD MO
200 PM CDT SUN JUN 25 2017

......SGF CWA......

CITY           SKY/WX    TMP DP  RH WIND       PRES   REMARKS
SPRINGFIELD    SUNNY     80  57  45 NW6       30.27F
JOPLIN         SUNNY     84  55  36 VRB6      30.27F
WEST PLAINS    SUNNY     84  46  26 CALM      30.26F
ROLLA          SUNNY     80  53  39 W10G17    30.24F
OSAGE BEACH    SUNNY     79  51  37 VRB6      30.26F
BRANSON        MOSUNNY   81  48  32 SW5       30.28F

......SURROUNDING SGF CWA......

CITY           SKY/WX    TMP DP  RH WIND       PRES   REMARKS
CHANUTE        MOSUNNY   83  53  35 W5        30.26F
PARSONS        MOSUNNY   85  51  31 VRB5      30.27F
COFFEYVILLE    SUNNY     86  52  30 NW7       30.25F
EMPORIA        CLOUDY    76  57  51 N9        30.29S
GROVE OK       SUNNY     84  54  34 NE3       30.28S
ROGERS AR      SUNNY     81  54  39 E7        30.28F
SILOAM SPRINGS SUNNY     81  50  34 SE6       30.27F
HARRISON AR    SUNNY     80  48  32 SW6       30.28F
NEAR YELLVILLE SUNNY    N/A N/A N/A E5        30.23F

......KANSAS AND MISSOURI......

CITY           SKY/WX    TMP DP  RH WIND       PRES   REMARKS
KANSAS CTY INT PTSUNNY   73  47  39 NW10      30.29S
DOWNTOWN KC    SUNNY     76  45  33 N7        30.27S
COLUMBIA       SUNNY     79  49  34 W15       30.24F
SEDALIA        SUNNY     79  52  38 VRB3      30.27F
ST JOSEPH      CLOUDY    73  47  39 VRB3      30.29S
ST LOUIS       MOSUNNY   83  47  28 NW15G22   30.20F
SPIRIT OF STL  MOSUNNY   82  50  32 NW13G21   30.19F
KIRKSVILLE     MOSUNNY   73  47  39 NW16G25   30.25F
WICHITA        CLOUDY    82  56  40 W5        30.26F
TOPEKA         CLOUDY    73  52  47 N6        30.29F
OLATHE         SUNNY     78  48  34 N7        30.28F

......TENNESSEE......

CITY           SKY/WX    TMP DP  RH WIND       PRES   REMARKS
MEMPHIS        MOSUNNY   85  53  33 VRB5      30.23F
NASHVILLE      MOSUNNY   84  47  27 N10       30.22F

......ARKANSAS.......

CITY           SKY/WX    TMP DP  RH WIND       PRES   REMARKS
FAYETTEVILLE   SUNNY     80  53  39 CALM      30.27F
FT SMITH       SUNNY     87  55  33 E10       30.23F
LITTLE ROCK    MOSUNNY   83  58  42 NE6       30.24F

......OKLAHOMA.......

CITY           SKY/WX    TMP DP  RH WIND       PRES   REMARKS
TULSA          MOSUNNY   86  54  33 E9        30.24F
PONCA CITY     MOSUNNY   85  53  33 S8        30.25F
MCALESTER      SUNNY     87  54  32 E6        30.24F
OKLAHOMA CITY  MOSUNNY   86  44  23 SE14      30.25F

......IOWA............

CITY           SKY/WX    TMP DP  RH WIND       PRES   REMARKS
DES MOINES     MOSUNNY   72  42  34 NW21G29   30.23F
QUAD CITIES    CLOUDY    68  48  48 W15G25    30.17S

......ILLINOIS........

CITY           SKY/WX    TMP DP  RH WIND       PRES   REMARKS
QUINCY         SUNNY     73  46  38 NW21G26   30.21S
CHICAGO        PTSUNNY   70  45  40 W18G24    30.08F




USA.gov is the U.S. government's official web portal to all federal, state and local government web resources and services.